Weather History for KPKV - March, 2014

Change the Weather History Date:

Thursday, March 27, 2014

  Actual Average (KVCT) Record (KVCT)
Temperature  
Mean Temperature 69 °F 66 °F  
Max Temperature 75 °F 77 °F 98 °F (1939)
Min Temperature 63 °F 55 °F 32 °F (1913)
Degree Days  
Heating Degree Days 0 3  
Month to date heating degree days 117  
Since 1 July heating degree days 1210  
Cooling Degree Days 4 3  
Month to date cooling degree days 60  
Year to date cooling degree days 98  
Growing Degree Days 19 (Base 50)    
Moisture  
Dew Point 66 °F    
Average Humidity 88    
Maximum Humidity 97    
Minimum Humidity 80    
Precipitation  
Precipitation 0.00 in 0.10 in 0.42 in (2005)
Month to date precipitation 2.41  
Year to date precipitation 7.01  
Snow  
Snow 0.00 in - - ()
Month to date snowfall  
Since 1 July snowfall  
Snow Depth -    
Sea Level Pressure  
Sea Level Pressure 29.85 in    
Wind  
Wind Speed 15 mph (SSE)    
Max Wind Speed 20 mph    
Max Gust Speed 26 mph    
Visibility 6 miles    
Events Rain    
T = Trace of Precipitation, MM = Missing Value Source: NWS Daily Summary

Daily Weather History Graph

Daily Weather History Graph

Search for Another Location

Airport or City:

Trip Planner

Search our weather history database for the weather conditions in past years. The results will help you decide how hot, cold, wet, or windy it might be!

Date:

Astronomy

Mar. 27, 2014 Rise Set
Actual Time 7:22 AM CDT 7:42 PM CDT
Civil Twilight 6:58 AM CDT 8:05 PM CDT
Nautical Twilight 6:31 AM CDT 8:33 PM CDT
Astronomical Twilight 6:03 AM CDT 9:01 PM CDT
Moon 4:58 AM CDT (3/27) 4:44 PM CDT (3/27)
Length of Visible Light 13h 06m
Length of Day
12h 19m
Waning Crescent, 13% of the Moon is Illuminated
Mar 27
Waning Crescent
Mar 30
New
Apr 7
First Quarter
Apr 15
Full
Apr 22
Last Quarter

Hourly Weather History & Observations

Time (CDT) Temp. Dew Point Humidity Pressure Visibility Wind Dir Wind Speed Gust Speed Precip Events Conditions
12:15 AM 63.9 °F 58.3 °F 82% 29.98 in 10.0 mi SSE 15.0 mph 18.4 mph N/A   Overcast
12:35 AM 64.4 °F 58.5 °F 81% 29.98 in 10.0 mi SE 15.0 mph - N/A   Overcast
1:15 AM 64.6 °F 59.0 °F 82% 29.95 in 10.0 mi SE 16.1 mph 20.7 mph N/A   Overcast
1:35 AM 64.8 °F 59.0 °F 82% 29.95 in 10.0 mi SSE 17.3 mph 21.9 mph N/A   Overcast
1:55 AM 64.9 °F 59.5 °F 83% 29.94 in 10.0 mi SE 15.0 mph - N/A   Overcast
2:15 AM 65.3 °F 60.4 °F 84% 29.94 in 10.0 mi SSE 13.8 mph - N/A   Overcast
2:35 AM 65.3 °F 60.8 °F 85% 29.93 in 10.0 mi SE 12.7 mph 18.4 mph N/A   Overcast
2:55 AM 65.3 °F 61.0 °F 86% 29.93 in 7.0 mi SE 15.0 mph - N/A   Overcast
3:15 AM 65.3 °F 60.8 °F 85% 29.92 in 10.0 mi SE 12.7 mph - N/A   Overcast
3:35 AM 65.5 °F 61.0 °F 85% 29.91 in 10.0 mi SE 12.7 mph 20.7 mph N/A   Overcast
3:55 AM 65.5 °F 61.0 °F 85% 29.91 in 10.0 mi SE 11.5 mph - N/A   Overcast
4:15 AM 65.5 °F 61.3 °F 86% 29.90 in 10.0 mi SE 12.7 mph - N/A   Overcast
4:35 AM 65.5 °F 61.7 °F 88% 29.88 in 7.0 mi SE 13.8 mph - N/A   Overcast
4:55 AM 65.7 °F 62.2 °F 89% 29.88 in 7.0 mi SSE 16.1 mph - N/A   Overcast
5:15 AM 65.8 °F 62.6 °F 89% 29.87 in 7.0 mi SE 15.0 mph - N/A   Overcast
5:35 AM 65.5 °F 62.8 °F 91% 29.86 in 7.0 mi SE 15.0 mph - N/A   Overcast
5:55 AM 65.3 °F 62.8 °F 92% 29.85 in 7.0 mi SE 15.0 mph 20.7 mph N/A   Overcast
6:15 AM 65.5 °F 63.0 °F 92% 29.85 in 7.0 mi SE 16.1 mph 21.9 mph N/A   Overcast
6:35 AM 66.4 °F 63.5 °F 90% 29.85 in 7.0 mi SE 17.3 mph - N/A   Overcast
6:55 AM 67.1 °F 63.9 °F 89% 29.85 in 7.0 mi SSE 17.3 mph 24.2 mph N/A   Overcast
7:15 AM 67.1 °F 64.0 °F 90% 29.85 in 7.0 mi SSE 18.4 mph 24.2 mph N/A   Overcast
7:35 AM 67.3 °F 64.4 °F 90% 29.86 in 7.0 mi SE 16.1 mph 21.9 mph N/A   Overcast
7:55 AM 67.5 °F 64.4 °F 90% 29.86 in 5.0 mi SE 15.0 mph - N/A   Overcast
8:15 AM 67.5 °F 64.4 °F 90% 29.87 in 5.0 mi SE 16.1 mph 19.6 mph N/A   Overcast
10:40 AM 70.7 °F 66.6 °F 87% 29.88 in 5.0 mi SSE 17.3 mph 26.5 mph N/A   Overcast
11:15 AM 70.9 °F 67.1 °F 88% 29.89 in 5.0 mi SSE 19.6 mph 23.0 mph N/A   Overcast
11:55 AM 72.5 °F 67.8 °F 85% 29.88 in 5.0 mi SSE 17.3 mph 21.9 mph N/A   Haze
12:55 PM 73.8 °F 68.2 °F 83% 29.87 in 5.0 mi SSE 16.1 mph 24.2 mph N/A   Haze
1:10 PM 74.1 °F 68.4 °F 82% 29.86 in 5.0 mi South 18.4 mph 24.2 mph N/A   Haze
1:55 PM 75.4 °F 68.7 °F 80% 29.85 in 5.0 mi South 15.0 mph 26.5 mph N/A   Haze
2:15 PM 74.5 °F 68.4 °F 81% 29.84 in 5.0 mi South 15.0 mph 20.7 mph N/A   Haze
2:35 PM 74.7 °F 68.5 °F 81% 29.84 in 5.0 mi South 18.4 mph 24.2 mph N/A   Haze
2:55 PM 73.9 °F 68.5 °F 83% 29.83 in 5.0 mi South 13.8 mph 23.0 mph N/A   Haze
3:15 PM 73.6 °F 68.5 °F 84% 29.82 in 5.0 mi South 17.3 mph 21.9 mph N/A   Haze
3:35 PM 74.3 °F 68.9 °F 83% 29.81 in 5.0 mi South 17.3 mph 23.0 mph N/A   Haze
3:55 PM 73.8 °F 68.5 °F 84% 29.81 in 5.0 mi South 15.0 mph 23.0 mph N/A   Haze
4:15 PM 72.9 °F 68.5 °F 86% 29.81 in 5.0 mi South 13.8 mph 18.4 mph N/A   Overcast
4:35 PM 72.7 °F 68.9 °F 88% 29.80 in 5.0 mi South 12.7 mph - N/A Rain Light Rain
4:55 PM 72.9 °F 68.9 °F 87% 29.80 in 5.0 mi South 15.0 mph - N/A   Overcast
5:15 PM 73.4 °F 68.9 °F 86% 29.80 in 5.0 mi South 17.3 mph 21.9 mph N/A   Overcast
5:35 PM 73.4 °F 69.1 °F 86% 29.80 in 5.0 mi South 16.1 mph 23.0 mph N/A   Overcast
5:55 PM 73.0 °F 69.3 °F 88% 29.79 in 5.0 mi South 15.0 mph - N/A   Overcast
6:15 PM 73.4 °F 69.3 °F 87% 29.78 in 5.0 mi South 18.4 mph 23.0 mph N/A   Overcast
6:35 PM 72.9 °F 69.3 °F 88% 29.78 in 5.0 mi South 19.6 mph 24.2 mph N/A   Overcast
7:15 PM 72.5 °F 69.1 °F 89% 29.78 in 5.0 mi South 12.7 mph 20.7 mph N/A   Overcast
7:35 PM 72.0 °F 69.1 °F 91% 29.78 in 4.0 mi South 16.1 mph 24.2 mph N/A   Overcast
7:55 PM 71.6 °F 69.1 °F 92% 29.79 in 5.0 mi South 13.8 mph - N/A   Overcast
8:15 PM 71.6 °F 69.1 °F 92% 29.79 in 5.0 mi South 12.7 mph - N/A   Overcast
8:35 PM 71.1 °F 69.1 °F 93% 29.79 in 5.0 mi South 11.5 mph 19.6 mph N/A   Overcast
8:55 PM 70.9 °F 69.1 °F 94% 29.80 in 5.0 mi South 11.5 mph - N/A   Overcast
9:15 PM 70.9 °F 69.1 °F 94% 29.80 in 4.0 mi South 12.7 mph - N/A   Overcast
9:35 PM 70.7 °F 68.9 °F 94% 29.80 in 4.0 mi South 11.5 mph - N/A   Overcast
9:55 PM 70.3 °F 68.9 °F 95% 29.80 in 3.0 mi South 12.7 mph 18.4 mph N/A   Overcast
10:15 PM 70.2 °F 68.9 °F 96% 29.81 in 2.5 mi South 11.5 mph - N/A   Overcast
10:35 PM 69.8 °F 68.9 °F 97% 29.82 in 2.0 mi South 10.4 mph 16.1 mph N/A   Overcast
10:55 PM 69.8 °F 68.9 °F 97% 29.83 in 1.5 mi South 9.2 mph - N/A   Overcast
11:15 PM 69.8 °F 68.9 °F 97% 29.83 in 1.2 mi South 9.2 mph - N/A   Overcast
11:35 PM 69.6 °F 68.7 °F 97% 29.83 in 1.2 mi SSW 8.1 mph - N/A   Overcast
11:55 PM 68.9 °F 68.0 °F 97% 29.83 in 0.8 mi SSW 9.2 mph - N/A   Overcast